[[{"header":{"parameterUnit":"m.s-1","parameterCategory":1,"la1":30.2991,"la2":30.254,"lo1":-89.0895,"lo2":-89.0444,"dy":0.0017,"dx":0.0017,"nx":28,"ny":28,"refTime":"2024-03-19T21:00:00:Z","depth":0,"parameterNumber":2,"parameterNumberName":"U-component_of_WINDS"},"data":[0,0,0,0,0,0,0,0,0,0,0,0,0,0,0,0,0,0,0,0,0,0,0,0,0,0,0,0,0,0,0,0,0,0,0,0,0,0,0,0,0,0,0,0,0,0,0,0,0,0,0,0,0,0,0,0,0,0,-1.8013,-1.8013,0,-1.8064,-1.8064,-1.8065,-1.8018,-1.8016,-1.8014,-1.8012,-1.8065,-1.8068,-1.8071,0,0,0,0,0,0,0,0,0,0,0,0,0,-1.7874,-1.7877,-1.8013,-1.8013,-1.8014,-1.8064,-1.8064,-1.8065,-1.8018,-1.8016,-1.8013,-1.8011,-1.8063,-1.8067,-1.8071,0,0,0,0,0,0,0,0,0,0,0,0,0,-1.7931,-1.7878,-1.8013,-1.7996,-1.7996,-1.8064,-1.8064,-1.8065,-1.8018,-1.8016,-1.8013,-1.801,-1.8062,-1.8067,-1.8072,-1.8158,0,0,-1.8086,-1.8088,0,0,0,0,0,0,0,0,-1.7927,-1.7936,-1.7998,-1.7998,-1.7997,-1.8031,-1.8035,-1.8097,-1.8019,-1.801,-1.8012,-1.8009,-1.8056,-1.8061,-1.8077,-1.8161,-1.8163,-1.8087,-1.8089,-1.8092,-1.8093,0,0,0,0,0,0,0,-1.7924,-1.7933,-1.8033,-1.7999,-1.7998,-1.7986,-1.7991,-1.8046,-1.8048,-1.801,-1.8007,-1.8014,-1.8055,-1.8072,-1.8078,-1.8164,-1.8086,-1.8091,-1.8094,-1.8095,-1.832,-1.8323,0,0,0,0,0,0,-1.7921,-1.793,-1.8031,-1.8034,-1.7954,-1.7991,-1.7997,-1.8023,-1.8048,-1.8048,-1.8016,-1.8011,-1.8066,-1.8072,-1.8079,-1.8182,-1.8091,-1.8096,-1.8099,-1.8317,-1.8321,-1.8324,0,0,0,0,0,0,-1.7919,-1.7931,-1.8029,-1.7982,-1.7993,-1.7997,-1.8027,-1.8026,-1.8043,-1.8052,-1.8052,-1.8034,-1.8064,-1.8073,-1.8139,-1.8183,-1.8098,-1.8102,-1.8314,-1.8318,-1.8323,-1.8388,0,0,0,0,0,0,-1.7915,-1.793,-1.7963,-1.7983,-1.7996,-1.8088,-1.803,-1.8029,-1.8051,-1.8046,-1.8068,-1.8069,-1.8062,-1.8132,-1.8144,-1.8188,-1.8106,-1.831,-1.8316,-1.8321,-1.8382,-1.8395,-1.8405,0,0,0,0,0,-1.791,-1.798,-1.7965,-1.7978,-1.8038,-1.8091,-1.8099,-1.8089,-1.8055,-1.8088,-1.8094,-1.8069,-1.8176,-1.8139,-1.8152,-1.8199,-1.8307,-1.8314,-1.8321,-1.8377,-1.8392,-1.8405,0,0,0,0,0,0,-1.7966,-1.7982,-1.7966,-1.8045,-1.8067,-1.8083,-1.8125,-1.8105,-1.8137,-1.8131,-1.8117,-1.8123,-1.8192,-1.8202,-1.816,-1.8283,-1.8236,-1.8246,-1.8275,-1.8289,-1.83,-1.8297,-1.811,0,0,0,0,0,-1.7988,-1.803,-1.8042,-1.811,-1.8122,-1.8121,-1.8144,-1.8135,-1.8157,-1.8166,-1.8176,-1.8199,-1.8238,-1.8264,-1.83,-1.8383,-1.8387,-1.8421,-1.8433,-1.8442,-1.8451,-1.8495,-1.851,-1.8347,-1.8347,-1.8347,0,0,-1.8033,-1.8047,-1.8074,-1.8121,-1.8137,-1.8181,-1.813,-1.8178,-1.821,-1.8174,-1.8237,-1.8245,-1.8269,-1.8344,-1.8377,-1.8354,-1.8497,-1.8451,-1.8459,-1.8462,-1.8504,-1.8519,-1.8533,-1.8352,-1.8351,-1.8351,0,0,-1.8137,-1.8152,-1.821,-1.8227,-1.8252,-1.8251,-1.8265,-1.8284,-1.8288,-1.8351,-1.8324,-1.8361,-1.8429,-1.8447,-1.8465,-1.8575,-1.8553,-1.8587,-1.8648,-1.8691,-1.8703,-1.8715,-1.8754,-1.8768,-1.8596,-1.8596,-1.8596,0,-1.819,-1.8255,-1.8242,-1.8293,-1.8314,-1.8282,-1.8341,-1.8358,-1.8393,-1.8408,-1.8382,-1.8465,-1.8479,-1.8557,-1.8584,-1.86,-1.8615,-1.8585,-1.8703,-1.8714,-1.8724,-1.8761,-1.8776,-1.86,-1.86,-1.8599,-1.8599,0,-1.8318,-1.8364,-1.8407,-1.8442,-1.8468,-1.8522,-1.8518,-1.8546,-1.8533,-1.8535,-1.8599,-1.8615,-1.8654,-1.8671,-1.866,-1.8748,-1.8732,-1.8705,-1.8657,-1.8744,-1.8778,-1.8792,-1.8606,-1.8604,-1.8603,-1.8602,0,0,-1.846,-1.8487,-1.8503,-1.8518,-1.8542,-1.8577,-1.8629,-1.8667,-1.8691,-1.8716,-1.8759,-1.8816,-1.879,-1.8811,-1.8801,-1.8839,-1.8924,-1.8806,-1.8806,-1.8827,-1.9021,-1.9042,-1.9058,-1.8909,-1.8912,-1.8914,-1.9019,0,-1.8565,-1.8656,-1.8646,-1.8733,-1.8774,-1.8744,-1.8789,-1.8809,-1.8812,-1.8847,-1.885,-1.8891,-1.8854,-1.8866,-1.8902,-1.8906,-1.8963,-1.8899,-1.8949,-1.8951,-1.8944,-1.9077,-1.9099,-1.9197,-1.9032,-1.9034,-1.9036,0,-1.87,-1.873,-1.8821,-1.8838,-1.8855,-1.8896,-1.8929,-1.8963,-1.8984,-1.8984,-1.9006,-1.899,-1.9042,-1.8993,-1.9064,-1.902,-1.904,-1.9046,-1.9049,-1.9054,-1.8999,-1.9084,-1.9228,-1.9243,-1.9057,-1.9056,-1.9054,0,-1.8794,-1.8857,-1.8919,-1.8933,-1.8955,-1.8984,-1.8994,-1.9013,-1.9036,-1.9064,-1.9079,-1.9113,-1.9132,-1.9159,-1.9152,-1.9117,-1.9225,-1.9175,-1.9225,-1.9226,-1.925,-1.9248,-1.9399,-1.9263,-1.9263,-1.9262,-1.9262,0,-1.8913,-1.8969,-1.8961,-1.9,-1.9062,-1.9049,-1.9111,-1.9118,-1.9135,-1.9173,-1.9149,-1.9186,-1.9174,-1.9211,-1.9205,-1.9265,-1.9273,-1.9274,-1.9272,-1.9276,-1.9276,-1.9289,-1.9282,-1.9266,-1.9265,-1.9264,-1.9264,0,-1.9029,-1.9026,-1.9091,-1.9106,-1.9111,-1.9157,-1.9169,-1.9205,-1.9205,-1.9254,-1.9265,-1.9266,-1.9307,-1.9303,-1.9349,-1.9345,-1.9419,-1.9409,-1.9412,-1.9409,-1.9459,-1.9455,-1.9623,-1.9645,-1.9495,-1.9497,-1.9498,0,-1.9104,-1.9147,-1.9166,-1.9191,-1.9203,-1.9242,-1.9265,-1.9254,-1.9279,-1.9306,-1.9338,-1.9377,-1.9407,-1.9474,-1.9479,-1.9514,-1.9504,-1.9561,-1.9509,-1.9512,-1.9504,-1.9502,-1.9506,-1.9571,-1.9573,-1.9574,-1.9575,0,-1.9239,-1.9235,-1.9269,-1.9303,-1.9331,-1.9356,-1.938,-1.9401,-1.9392,-1.9421,-1.9462,-1.9486,-1.9532,-1.9571,-1.9604,-1.9614,-1.9593,-1.9591,-1.9604,-1.9609,-1.9609,-1.9609,-1.9439,-1.9587,-1.9586,-1.9585,-1.9585,-1.9584,-1.9337,-1.9374,-1.9392,-1.9431,-1.9447,-1.9469,-1.9503,-1.9508,-1.9542,-1.9579,-1.957,-1.9617,-1.9636,-1.9678,-1.9691,-1.9727,-1.9706,-1.9726,-1.9731,-1.9736,-1.9741,-1.9603,-1.9733,-1.9733,-1.9732,-1.9732,-1.9732,0,-1.947,-1.9481,-1.9516,-1.9549,-1.9579,-1.9557,-1.9581,-1.9607,-1.9649,-1.9668,-1.9699,-1.9746,-1.9783,-1.979,-1.9825,-1.9852,-1.9844,-1.9862,-1.986,-1.9862,-1.9758,-1.9743,-1.9868,-1.9868,-1.9868,-1.9868,-1.9868,-1.9868,-1.9543,-1.9603,-1.9601,-1.9669,-1.9679,-1.9724,-1.974,-1.976,-1.9775,-1.9829,-1.986,-1.9864,-1.9878,-1.9914,-1.9946,-1.9947,-1.9961,-1.9984,-1.9981,-1.9883,-1.987,-1.9857,-1.9842,-1.9987,-1.9987,-2.0082,-2.0083,-2.0083]},{"header":{"parameterUnit":"m.s-1","parameterCategory":1,"la1":30.2991,"la2":30.254,"lo1":-89.0895,"lo2":-89.0444,"dy":0.0017,"dx":0.0017,"nx":28,"ny":28,"refTime":"2024-03-19T21:00:00:Z","depth":0,"parameterNumber":3,"parameterNumberName":"V-component_of_WINDS"},"data":[0,0,0,0,0,0,0,0,0,0,0,0,0,0,0,0,0,0,0,0,0,0,0,0,0,0,0,0,0,0,0,0,0,0,0,0,0,0,0,0,0,0,0,0,0,0,0,0,0,0,0,0,0,0,0,0,0,0,-1.5398,-1.5399,0,-1.5431,-1.5431,-1.5432,-1.5446,-1.5446,-1.5446,-1.5446,-1.5477,-1.5478,-1.5479,0,0,0,0,0,0,0,0,0,0,0,0,0,-1.5347,-1.5347,-1.5398,-1.5399,-1.5399,-1.5431,-1.5431,-1.5432,-1.5446,-1.5446,-1.5446,-1.5446,-1.5477,-1.5478,-1.5479,0,0,0,0,0,0,0,0,0,0,0,0,0,-1.5373,-1.5348,-1.5398,-1.541,-1.5411,-1.5431,-1.5431,-1.5432,-1.5446,-1.5446,-1.5446,-1.5446,-1.5477,-1.5478,-1.5479,-1.5489,0,0,-1.5483,-1.5484,0,0,0,0,0,0,0,0,-1.5371,-1.5375,-1.5408,-1.5409,-1.5411,-1.5434,-1.5425,-1.5451,-1.5446,-1.5433,-1.5446,-1.5445,-1.5463,-1.5465,-1.5471,-1.549,-1.5492,-1.5483,-1.5484,-1.5485,-1.5485,0,0,0,0,0,0,0,-1.537,-1.5374,-1.5411,-1.5408,-1.541,-1.5413,-1.5417,-1.543,-1.5448,-1.5434,-1.5435,-1.5439,-1.5464,-1.547,-1.5472,-1.5492,-1.5483,-1.5484,-1.5485,-1.5486,-1.5519,-1.5519,0,0,0,0,0,0,-1.5366,-1.5372,-1.541,-1.5412,-1.5391,-1.5414,-1.5418,-1.5427,-1.5448,-1.5451,-1.5439,-1.5439,-1.5468,-1.5471,-1.5473,-1.5486,-1.5485,-1.5486,-1.5487,-1.5519,-1.5519,-1.5519,0,0,0,0,0,0,-1.5365,-1.5369,-1.5409,-1.5392,-1.5398,-1.5415,-1.5425,-1.5427,-1.5434,-1.5451,-1.5454,-1.5442,-1.5468,-1.5472,-1.5485,-1.5487,-1.5487,-1.5488,-1.5519,-1.5519,-1.5519,-1.551,0,0,0,0,0,0,-1.5363,-1.5369,-1.5373,-1.5392,-1.5398,-1.542,-1.5425,-1.5428,-1.5436,-1.5437,-1.5455,-1.5458,-1.5468,-1.5483,-1.5486,-1.5489,-1.5489,-1.5519,-1.5519,-1.5519,-1.551,-1.551,-1.551,0,0,0,0,0,-1.5362,-1.5369,-1.5373,-1.5378,-1.5404,-1.542,-1.5424,-1.5435,-1.5437,-1.5441,-1.5452,-1.5458,-1.5486,-1.5484,-1.5488,-1.5491,-1.5519,-1.5519,-1.5519,-1.551,-1.551,-1.551,0,0,0,0,0,0,-1.535,-1.5372,-1.5377,-1.5391,-1.5404,-1.5423,-1.5428,-1.5435,-1.5447,-1.5447,-1.5461,-1.5465,-1.5476,-1.5485,-1.5482,-1.5501,-1.5503,-1.5504,-1.5495,-1.5495,-1.5494,-1.5492,-1.549,0,0,0,0,0,-1.5349,-1.536,-1.5379,-1.539,-1.5396,-1.5411,-1.5418,-1.5426,-1.544,-1.5445,-1.5457,-1.5469,-1.5481,-1.5488,-1.55,-1.5511,-1.5515,-1.5515,-1.5515,-1.5515,-1.5515,-1.5521,-1.5522,-1.552,-1.552,-1.552,0,0,-1.5347,-1.5361,-1.5367,-1.5388,-1.5399,-1.541,-1.5415,-1.5427,-1.5435,-1.5447,-1.546,-1.5469,-1.5483,-1.5495,-1.5501,-1.5503,-1.5517,-1.5515,-1.5514,-1.5515,-1.5522,-1.5522,-1.5522,-1.552,-1.552,-1.552,0,0,-1.5349,-1.5361,-1.5371,-1.5382,-1.5398,-1.5408,-1.541,-1.5428,-1.5434,-1.5448,-1.5456,-1.5466,-1.5486,-1.5495,-1.5503,-1.5508,-1.5514,-1.5511,-1.551,-1.5515,-1.5515,-1.5516,-1.5517,-1.5517,-1.5512,-1.5512,-1.5512,0,-1.5345,-1.5363,-1.5375,-1.5387,-1.5395,-1.5406,-1.5416,-1.5425,-1.5444,-1.5449,-1.5451,-1.5475,-1.5486,-1.55,-1.5501,-1.5507,-1.551,-1.5509,-1.5515,-1.5515,-1.5515,-1.5517,-1.5517,-1.5511,-1.5512,-1.5512,-1.5512,0,-1.5356,-1.5368,-1.5374,-1.5393,-1.5402,-1.5412,-1.5425,-1.5433,-1.544,-1.5449,-1.5462,-1.5475,-1.5489,-1.5493,-1.55,-1.5508,-1.5509,-1.5512,-1.5514,-1.5515,-1.5516,-1.5517,-1.5511,-1.5511,-1.5511,-1.5511,0,0,-1.5353,-1.5377,-1.5379,-1.5388,-1.5406,-1.5415,-1.5425,-1.5439,-1.5445,-1.5458,-1.5466,-1.5482,-1.5486,-1.5494,-1.5502,-1.5507,-1.5509,-1.551,-1.551,-1.5509,-1.5519,-1.5516,-1.5517,-1.5513,-1.5513,-1.5514,-1.5518,0,-1.5358,-1.5377,-1.5389,-1.5403,-1.5414,-1.5424,-1.5433,-1.5445,-1.5453,-1.5463,-1.5473,-1.5484,-1.5487,-1.5492,-1.5498,-1.5508,-1.5512,-1.5508,-1.5521,-1.5521,-1.5517,-1.5518,-1.5515,-1.5518,-1.5518,-1.5518,-1.5518,0,-1.5366,-1.5378,-1.5394,-1.5411,-1.5416,-1.5423,-1.5437,-1.5447,-1.5459,-1.5465,-1.5475,-1.5482,-1.5493,-1.5494,-1.5508,-1.5505,-1.5511,-1.5517,-1.5517,-1.5519,-1.552,-1.5519,-1.5519,-1.552,-1.552,-1.552,-1.5519,0,-1.5361,-1.5382,-1.5394,-1.5401,-1.542,-1.5425,-1.5434,-1.5447,-1.5454,-1.5466,-1.547,-1.5483,-1.549,-1.5499,-1.5509,-1.5509,-1.5522,-1.5524,-1.5527,-1.5526,-1.5529,-1.5529,-1.553,-1.5533,-1.5533,-1.5533,-1.5533,0,-1.5366,-1.5375,-1.5392,-1.54,-1.541,-1.5422,-1.5432,-1.5441,-1.5452,-1.5461,-1.547,-1.5478,-1.5491,-1.55,-1.5508,-1.5518,-1.5521,-1.5526,-1.5528,-1.5525,-1.5525,-1.5529,-1.5529,-1.5533,-1.5533,-1.5533,-1.5533,0,-1.5362,-1.5375,-1.5388,-1.5405,-1.541,-1.5417,-1.5431,-1.5438,-1.5447,-1.5458,-1.5461,-1.5475,-1.5486,-1.5497,-1.5513,-1.5518,-1.5528,-1.5531,-1.5524,-1.5525,-1.5526,-1.5526,-1.5531,-1.5532,-1.5534,-1.5534,-1.5534,0,-1.5364,-1.5372,-1.539,-1.5396,-1.5404,-1.5415,-1.5423,-1.5435,-1.5442,-1.5457,-1.5462,-1.5474,-1.5485,-1.5502,-1.5513,-1.5524,-1.5527,-1.5528,-1.5529,-1.5526,-1.5527,-1.5526,-1.5527,-1.5528,-1.5528,-1.5528,-1.5528,0,-1.5366,-1.5372,-1.5383,-1.5396,-1.5405,-1.5416,-1.5427,-1.5431,-1.5445,-1.5453,-1.5465,-1.5473,-1.5488,-1.55,-1.5512,-1.552,-1.5526,-1.5527,-1.5528,-1.5526,-1.5521,-1.5523,-1.5523,-1.5527,-1.5527,-1.5527,-1.5527,-1.5527,-1.5366,-1.5372,-1.5386,-1.5398,-1.5407,-1.5417,-1.5424,-1.5434,-1.5445,-1.5458,-1.5464,-1.5476,-1.5488,-1.5505,-1.5513,-1.5522,-1.5523,-1.5525,-1.5525,-1.5526,-1.5525,-1.552,-1.5524,-1.5524,-1.5524,-1.5524,-1.5524,0,-1.5368,-1.5377,-1.5388,-1.5403,-1.5412,-1.5417,-1.5429,-1.5436,-1.5446,-1.5457,-1.5467,-1.548,-1.5491,-1.5503,-1.5515,-1.5519,-1.5522,-1.5522,-1.5522,-1.5523,-1.5523,-1.5521,-1.5519,-1.5519,-1.5519,-1.5519,-1.5519,-1.5519,-1.537,-1.5382,-1.5389,-1.5405,-1.5413,-1.5425,-1.5432,-1.5441,-1.5449,-1.5464,-1.5473,-1.5481,-1.5492,-1.5504,-1.5514,-1.5517,-1.5521,-1.552,-1.5523,-1.5523,-1.5523,-1.5524,-1.5522,-1.552,-1.552,-1.5523,-1.5523,-1.5523]}]]